Weather History for KMLI - August, 2013

Change the Weather History Date:

Friday, August 16, 2013

  Actual Average Record
Temperature  
Mean Temperature 66 °F 74 °F  
Max Temperature 81 °F 84 °F 101 °F (1988)
Min Temperature 51 °F 64 °F 47 °F (1992)
Degree Days  
Heating Degree Days 0 0  
Month to date heating degree days 4 0  
Since 1 June heating degree days 38 21  
Since 1 July heating degree days 11 2  
Cooling Degree Days 1 9  
Month to date cooling degree days 87 151  
Year to date cooling degree days 638 765  
Since 1 June cooling degree days 548 689  
Growing Degree Days 16 (Base 50)    
Moisture  
Dew Point 54 °F    
Average Humidity 66    
Maximum Humidity 96    
Minimum Humidity 35    
Precipitation  
Precipitation 0.00 in 0.16 in 2.80 in (1980)
Month to date precipitation 0.76 2.33  
Year to date precipitation 32.61 24.97  
Snow  
Snow 0.00 in 0.00 in - ()
Month to date snowfall 0.0 0.0  
Since 1 June snowfall 0.0 0.0  
Since 1 July snowfall 0.0 0.0  
Snow Depth 0.00 in    
Sea Level Pressure  
Sea Level Pressure 30.17 in    
Wind  
Wind Speed 2 mph (NE)    
Max Wind Speed 10 mph    
Max Gust Speed 15 mph    
Visibility 10 miles    
Events      
T = Trace of Precipitation, MM = Missing Value Source: NWS Daily Summary

Daily Weather History Graph

Daily Weather History Graph

Search for Another Location

Airport or City:

Trip Planner

Search our weather history database for the weather conditions in past years. The results will help you decide how hot, cold, wet, or windy it might be!

Date:

Astronomy

Aug. 16, 2013 Rise Set
Actual Time 6:12 AM CDT 7:59 PM CDT
Civil Twilight 5:42 AM CDT 8:29 PM CDT
Nautical Twilight 5:06 AM CDT 9:04 PM CDT
Astronomical Twilight 4:27 AM CDT 9:43 PM CDT
Moon 4:19 PM CDT (8/16) 1:13 AM CDT (8/16)
Length of Visible Light 14h 46m
Length of Day
13h 47m
Waxing Gibbous, 75% of the Moon is Illuminated
Aug 16
Waxing Gibbous
Aug 20
Full
Aug 28
Last Quarter
Sep 5
New
Sep 12
First Quarter

Hourly Weather History & Observations

Time (CDT) Temp. Dew Point Humidity Pressure Visibility Wind Dir Wind Speed Gust Speed Precip Events Conditions
12:52 AM 54.0 °F 52.0 °F 93% 30.15 in 10.0 mi Calm Calm - N/A   Clear
1:52 AM 53.1 °F 51.1 °F 93% 30.15 in 10.0 mi Calm Calm - N/A   Clear
2:52 AM 53.1 °F 50.0 °F 89% 30.15 in 10.0 mi Calm Calm - N/A   Clear
3:52 AM 53.1 °F 50.0 °F 89% 30.15 in 10.0 mi Calm Calm - N/A   Clear
4:52 AM 52.0 °F 50.0 °F 93% 30.16 in 10.0 mi Calm Calm - N/A   Clear
5:52 AM 51.1 °F 48.9 °F 92% 30.17 in 10.0 mi Calm Calm - N/A   Clear
6:52 AM 52.0 °F 50.0 °F 93% 30.18 in 10.0 mi Calm Calm - N/A   Clear
7:52 AM 59.0 °F 55.9 °F 90% 30.19 in 10.0 mi Calm Calm - N/A   Scattered Clouds
8:30 AM 62.6 °F 57.2 °F 82% 30.20 in 10.0 mi Calm Calm - N/A   Clear
8:52 AM 64.0 °F 57.9 °F 80% 30.19 in 9.0 mi Calm Calm - N/A   Clear
9:52 AM 72.0 °F 55.9 °F 57% 30.19 in 10.0 mi NNW 3.5 mph - N/A   Clear
10:52 AM 75.0 °F 53.1 °F 46% 30.19 in 10.0 mi Variable 3.5 mph - N/A   Clear
11:52 AM 78.1 °F 53.1 °F 42% 30.19 in 10.0 mi NE 8.1 mph - N/A   Clear
12:52 PM 79.0 °F 53.1 °F 40% 30.18 in 10.0 mi Variable 6.9 mph - N/A   Mostly Cloudy
1:52 PM 80.1 °F 52.0 °F 38% 30.17 in 10.0 mi NE 3.5 mph - N/A   Mostly Cloudy
2:52 PM 77.0 °F 52.0 °F 42% 30.16 in 10.0 mi NE 5.8 mph - N/A   Overcast
3:52 PM 81.0 °F 50.0 °F 34% 30.15 in 10.0 mi NE 3.5 mph - N/A   Partly Cloudy
4:52 PM 77.0 °F 52.0 °F 42% 30.15 in 10.0 mi ENE 10.4 mph - N/A   Mostly Cloudy
5:52 PM 78.1 °F 53.1 °F 42% 30.14 in 10.0 mi Variable 3.5 mph - N/A   Clear
6:52 PM 73.0 °F 57.0 °F 57% 30.14 in 10.0 mi SE 4.6 mph - N/A   Clear
7:52 PM 68.0 °F 59.0 °F 73% 30.15 in 10.0 mi Calm Calm - N/A   Clear
8:52 PM 63.0 °F 57.9 °F 84% 30.16 in 10.0 mi Calm Calm - N/A   Scattered Clouds
9:52 PM 62.1 °F 57.0 °F 84% 30.17 in 10.0 mi Calm Calm - N/A   Clear
10:52 PM 59.0 °F 57.0 °F 93% 30.17 in 10.0 mi Calm Calm - N/A   Clear
11:52 PM 57.9 °F 55.0 °F 90% 30.17 in 10.0 mi Calm Calm - N/A   Clear